Sault Ste Marie, MI

2:40 PM EST on February 26, 2017 (GMT -0500)
Sault Ste Marie Municipal / Sanderson Field

Weather History for KANJ - August, 2014

Change the Weather History Date:

Tuesday, August 19, 2014

  Actual Average Record
Temperature  
Mean Temperature 60 °F 64 °F  
Max Temperature 63 °F 75 °F 92 °F (1955)
Min Temperature 56 °F 55 °F 38 °F (1981)
Degree Days  
Heating Degree Days 5 2  
Month to date heating degree days 41 38  
Since 1 June heating degree days 261 287  
Since 1 July heating degree days 152 107  
Cooling Degree Days 0 2  
Month to date cooling degree days 23 49  
Year to date cooling degree days 83 162  
Since 1 June cooling degree days 81 157  
Growing Degree Days 10 (Base 50)    
Moisture  
Dew Point 57 °F    
Average Humidity 92    
Maximum Humidity 97    
Minimum Humidity 86    
Precipitation  
Precipitation 0.34 in 0.09 in 1.54 in (1900)
Month to date precipitation 1.73 1.92  
Year to date precipitation 18.17 17.92  
Sea Level Pressure  
Sea Level Pressure 29.74 in    
Wind  
Wind Speed 7 mph (ESE)    
Max Wind Speed 12 mph    
Max Gust Speed 19 mph    
Visibility 6 miles    
Events Rain    
T = Trace of Precipitation, MM = Missing Value Source: NWS Daily Summary

Daily Weather History Graph

Daily Weather History Graph

Search for Another Location

Airport or City:

Trip Planner

Search our weather history database for the weather conditions in past years. The results will help you decide how hot, cold, wet, or windy it might be!

Date:

Astronomy

Aug. 19, 2014 Rise Set
Actual Time 6:41 AM EDT 8:40 PM EDT
Civil Twilight 6:08 AM EDT 9:12 PM EDT
Nautical Twilight 5:28 AM EDT 9:52 PM EDT
Astronomical Twilight 4:43 AM EDT 10:36 PM EDT
Moon 1:26 AM EDT (8/19) 4:42 PM EDT (8/19)
Length of Visible Light 15h 04m
Length of Day
13h 59m
Waning Crescent, 29% of the Moon is Illuminated
Aug 19
Waning Crescent
Aug 25
New
Sep 2
First Quarter
Sep 8
Full
Sep 15
Last Quarter

Hourly Weather History & Observations

Time (EDT) Temp. Dew Point Humidity Pressure Visibility Wind Dir Wind Speed Gust Speed Precip Events Conditions
12:55 AM 57.9 °F 55.0 °F 90% 29.81 in 7.0 mi ESE 6.9 mph - 0.02 in Rain Light Rain
1:53 AM 57.2 °F 55.4 °F 94% 29.81 in 7.0 mi ESE 5.8 mph - 0.16 in Rain Light Rain
1:55 AM 57.9 °F 55.0 °F 90% 29.80 in 8.0 mi ESE 6.9 mph - 0.16 in Rain Light Rain
2:02 AM 57.9 °F 55.0 °F 90% 29.80 in 6.0 mi ESE 6.9 mph - 0.00 in Rain Light Rain
2:24 AM 57.9 °F 55.0 °F 90% 29.79 in 6.0 mi ESE 8.1 mph - 0.01 in Rain Light Rain
2:36 AM 57.0 °F 55.0 °F 93% 29.79 in 10.0 mi ESE 6.9 mph - 0.01 in Rain Light Rain
2:55 AM 57.0 °F 55.0 °F 93% 29.78 in 7.0 mi ESE 6.9 mph - 0.01 in   Overcast
3:04 AM 57.0 °F 55.0 °F 93% 29.78 in 6.0 mi ESE 6.9 mph - N/A   Overcast
3:44 AM 57.0 °F 54.0 °F 89% 29.78 in 10.0 mi East 8.1 mph - 0.02 in   Overcast
3:55 AM 57.0 °F 54.0 °F 89% 29.78 in 10.0 mi East 9.2 mph - 0.02 in   Overcast
4:19 AM 57.0 °F 54.0 °F 89% 29.77 in 10.0 mi East 8.1 mph - N/A   Overcast
4:50 AM 57.2 °F 53.6 °F 88% 29.77 in 10.0 mi East 9.2 mph - 0.00 in Rain Light Rain
4:55 AM 57.0 °F 54.0 °F 89% 29.77 in 8.0 mi East 10.4 mph - 0.00 in Rain Light Rain
5:55 AM 57.0 °F 54.0 °F 89% 29.75 in 10.0 mi East 8.1 mph - 0.00 in   Overcast
6:55 AM 57.0 °F 54.0 °F 89% 29.74 in 10.0 mi ESE 6.9 mph - 0.00 in   Overcast
7:33 AM 57.0 °F 54.0 °F 89% 29.75 in 10.0 mi ESE 8.1 mph - N/A   Overcast
7:55 AM 57.9 °F 55.0 °F 90% 29.75 in 10.0 mi ESE 6.9 mph - N/A   Overcast
8:33 AM 57.9 °F 55.0 °F 90% 29.74 in 10.0 mi East 6.9 mph - N/A   Overcast
8:55 AM 57.9 °F 55.0 °F 90% 29.74 in 10.0 mi Variable 5.8 mph - N/A   Overcast
9:55 AM 59.0 °F 55.9 °F 90% 29.72 in 10.0 mi East 6.9 mph - N/A   Overcast
10:55 AM 61.0 °F 57.9 °F 90% 29.73 in 10.0 mi East 8.1 mph - N/A   Overcast
11:44 AM 61.0 °F 59.0 °F 93% 29.72 in 6.0 mi Variable 6.9 mph - 0.02 in   Overcast
11:55 AM 62.1 °F 59.0 °F 90% 29.72 in 5.0 mi East 6.9 mph - 0.02 in   Overcast
12:55 PM 62.1 °F 60.1 °F 93% 29.71 in 3.0 mi ESE 8.1 mph - 0.01 in Rain Light Rain
1:33 PM 63.0 °F 61.0 °F 93% 29.71 in 1.8 mi ESE 8.1 mph - 0.00 in Rain Light Rain
1:55 PM 63.0 °F 61.0 °F 93% 29.70 in 2.5 mi ESE 6.9 mph - 0.01 in   Overcast
2:04 PM 63.0 °F 61.0 °F 93% 29.71 in 3.0 mi ESE 5.8 mph - N/A   Overcast
2:55 PM 63.0 °F 61.0 °F 93% 29.71 in 3.0 mi ESE 9.2 mph 16.1 mph N/A   Overcast
3:27 PM 62.6 °F 60.8 °F 94% 29.70 in 2.0 mi ESE 8.1 mph - N/A Rain Light Rain
3:37 PM 62.1 °F 60.1 °F 93% 29.70 in 1.8 mi ESE 8.1 mph 18.4 mph 0.00 in Rain Light Rain
3:46 PM 62.1 °F 60.1 °F 93% 29.70 in 2.5 mi ESE 9.2 mph 17.3 mph 0.00 in Rain Light Rain
3:55 PM 62.1 °F 60.1 °F 93% 29.70 in 2.5 mi ESE 10.4 mph - 0.00 in   Overcast
4:42 PM 61.0 °F 59.0 °F 93% 29.70 in 3.0 mi ESE 6.9 mph - 0.00 in   Overcast
4:48 PM 61.0 °F 60.1 °F 97% 29.70 in 1.8 mi ESE 8.1 mph - 0.01 in Rain Rain
4:55 PM 61.0 °F 59.0 °F 93% 29.70 in 2.0 mi ESE 10.4 mph 17.3 mph 0.01 in Rain Light Rain
5:02 PM 61.0 °F 59.0 °F 93% 29.70 in 1.0 mi ESE 9.2 mph 17.3 mph 0.04 in Rain Heavy Rain
5:17 PM 61.0 °F 59.0 °F 93% 29.71 in 3.0 mi ESE 10.4 mph - 0.09 in Rain Light Rain
5:48 PM 61.0 °F 59.0 °F 93% 29.72 in 6.0 mi ESE 9.2 mph 17.3 mph 0.09 in   Overcast
5:55 PM 61.0 °F 59.0 °F 93% 29.72 in 7.0 mi East 8.1 mph 17.3 mph 0.09 in   Overcast
6:55 PM 61.0 °F 59.0 °F 93% 29.73 in 6.0 mi East 6.9 mph - N/A   Overcast
7:55 PM 61.0 °F 59.0 °F 93% 29.73 in 4.0 mi ESE 6.9 mph - 0.01 in   Overcast
8:55 PM 62.1 °F 60.1 °F 93% 29.73 in 6.0 mi ESE 5.8 mph - 0.00 in   Overcast
9:55 PM 62.1 °F 60.1 °F 93% 29.73 in 7.0 mi East 6.9 mph - N/A   Overcast
10:55 PM 62.1 °F 59.0 °F 90% 29.73 in 7.0 mi East 4.6 mph - N/A   Overcast
11:13 PM 61.0 °F 59.0 °F 93% 29.73 in 8.0 mi East 5.8 mph - N/A   Overcast
11:55 PM 61.0 °F 57.9 °F 90% 29.73 in 9.0 mi East 4.6 mph - N/A   Overcast